Location: Milton Keynes
(52.0316°N, 0.7531°W)
Time: 11:39:09
(UTC+00:00)

GENESIS II - Pass Details

Date: 30 January 2019
Orbit: 487 x 544 km, 64.5° (Epoch: 19 February)

Event Time Altitude Azimuth Distance (km) Brightness Sun altitude
Rises 06:27:33 0° 219° (SW) 2,620 7.5 -12.2°
Reaches altitude 10° 06:29:42 10° 219° (SW) 1,747 6.6 -11.9°
Maximum altitude 06:33:37 83° 131° (SE) 536 4.3 -11.3°
Drops below altitude 10° 06:37:39 10° 44° (NE) 1,792 7.3 -10.7°
Sets 06:39:52 0° 44° (NE) 2,695 8.3 -10.3°
